Weather observations for the past three days for
Ord, Evelyn Sharp Field Airport
Imperial (Metric)
Date Time (cdt) Wind (mph) Vis. (mi.) Weather Sky Cond. Temperature (ºF) Relative Humidity Wind Chill (°F) Heat Index (°F) Pressure Precipitation (in)
Air Dwpt 6 hour altimeter (in) sea level (mb) 1 hr 3 hr 6 hr
Max. Min.
31 09:53 NW 7 10.00 Fair CLR 69.1 60.1 73% 30.01 1015.4
31 08:53 NW 3 10.00 Fair CLR 64.9 59 81% 30.01 1015.3
31 07:53 W 3 10.00 Fair CLR 62.1 59 90% 30 1014.9
31 06:53 SW 6 10.00 Fair CLR 63 59 72 63 87% 29.99 1014.3
31 05:53 NW 6 10.00 A Few Clouds FEW100 63 59 87% 29.94 1012.7
31 04:53 NW 6 10.00 Partly Cloudy SCT110 64.9 59 81% 29.93 1012.2
31 03:53 NW 9 10.00 Mostly Cloudy BKN120 68 60.1 76% 29.9 1011.2
31 02:53 NW 6 10.00 Fair CLR 71.1 64 79% 29.87 1010.2
31 01:53 NW 6 10.00 Fair CLR 69.1 66.9 93% 29.87 1010.0
31 00:53 Calm 10.00 Fair CLR 71.1 66.9 88 70 87% 29.85 1009.5
30 23:53 SW 7 10.00 Fair CLR 72 66.9 84% 29.85 1009.5
30 22:53 SW 6 10.00 Fair CLR 73 66.9 81% 29.84 1009.2
30 21:53 SW 7 10.00 Fair CLR 73 68 84% 29.85 1009.5
30 20:53 S 7 10.00 Fair CLR 75 68 79% 76 29.83 1009.1
30 19:53 S 6 10.00 Fair CLR 81 70 69% 84 29.83 1008.8
30 18:53 S 7 10.00 Fair CLR 88 68 91 82.9 52% 92 29.83 1008.7
30 17:53 S 8 10.00 Fair CLR 88 66 48% 90 29.81 1008.2
30 16:53 S 8 10.00 Fair CLR 90 64 42% 91 29.8 1007.6
30 15:53 SW 6 10.00 Fair CLR 88 62.1 42% 88 29.81 1007.9
30 14:53 W 6 10.00 Fair CLR 88 64 45% 89 29.81 1008.0
30 13:53 W 3 10.00 Fair CLR 87.1 61 42% 87 29.82 1008.4
30 12:53 SW 8 10.00 Fair CLR 84 66 84 66 55% 86 29.84 1009.2
30 11:53 NW 5 10.00 Fair CLR 81 63 54% 82 29.85 1009.6
30 10:53 NW 5 10.00 Fair CLR 82 66.9 60% 85 29.83 1008.7
30 09:53 Calm 10.00 Fair CLR 79 69.1 72% 82 29.82 1008.4
30 08:53 Calm 10.00 Fair CLR 72 66 82% 29.82 1008.5
30 07:53 Calm 10.00 Fair CLR 66.9 64.9 93% 29.83 1008.9
30 06:53 W 3 10.00 Fair CLR 68 64 75 68 87% 29.83 1008.6
30 05:53 SW 9 10.00 Fair CLR 71.1 64 79% 29.79 1007.3
30 04:53 Calm 10.00 Fair CLR 72 64.9 79% 29.75 1005.9
30 03:53 E 9 10.00 Partly Cloudy SCT120 73 66 79% 29.77 1006.5
30 02:53 SW 14 10.00 Light Rain SCT100 BKN120 73.9 64.9 74% 29.86 1009.5
30 01:53 W 5 10.00 A Few Clouds FEW120 72 70 94% 29.84 1008.9
30 00:53 Calm 10.00 Fair CLR 75 71.1 89.1 73 88% 75 29.83 1008.8
29 23:53 NW 6 10.00 Fair CLR 73 71.1 94% 29.8 1007.8
29 22:53 S 3 10.00 Fair CLR 79 71.1 77% 82 29.8 1007.5
29 21:53 Calm 10.00 Fair CLR 80.1 71.1 74% 84 29.81 1008.0
29 20:53 S 3 10.00 Fair CLR 84 72 67% 90 29.8 1007.6
29 19:53 S 3 10.00 Fair CLR 84 73.9 72% 91 29.8 1007.6
29 18:53 S 7 10.00 Fair CLR 89.1 73 93.9 89.1 59% 97 29.79 1007.1
29 17:53 SW 8 10.00 Fair CLR 93 70 47% 99 29.78 1006.8
29 16:53 SW 7 10.00 Fair CLR 93 70 47% 99 29.78 1006.7
29 14:53 SW 10 10.00 Fair CLR 93 68 44% 97 29.81 1007.7
29 13:53 W 7 10.00 Fair CLR 91.9 68 46% 96 29.82 1008.0
29 12:53 SW 8 10.00 Fair CLR 89.1 70 89.1 69.1 53% 94 29.83 1008.6
29 11:53 SW 9 10.00 Fair CLR 84.9 69.1 59% 89 29.84 1009.1
29 10:53 SW 7 10.00 Fair CLR 82 66.9 60% 85 29.85 1009.2
29 09:53 SW 7 10.00 Fair CLR 78.1 64.9 64% 80 29.85 1009.5
29 08:53 SE 5 10.00 Fair CLR 75 64 69% 77 29.86 1010.1
29 07:53 SE 7 10.00 Fair CLR 72 64 76% 29.86 1010.0
29 06:53 SW 6 10.00 Fair CLR 73 64 75 72 74% 29.86 1009.6
29 05:53 S 8 10.00 Fair CLR 73 63 71% 29.86 1009.6
29 04:53 S 5 10.00 Fair CLR 73 63 71% 29.86 1009.8
29 03:53 SE 8 10.00 Fair CLR 73 64 74% 29.86 1009.8
29 02:53 S 9 10.00 Fair CLR 73.9 64.9 74% 29.89 1010.6
29 01:53 S 10 10.00 Fair CLR 73 64.9 76% 29.91 1011.6
29 00:53 SE 6 10.00 Fair CLR 73 66 84 73 79% 29.92 1011.9
28 23:53 SE 8 10.00 Fair CLR 73.9 66 76% 29.93 1012.2
28 22:53 SE 8 10.00 Fair CLR 75 66.9 76% 76 29.93 1012.3
28 21:53 SE 10 10.00 Fair CLR 75.9 68 77% 77 29.93 1012.5
28 20:53 SE 12 10.00 Fair CLR 78.1 68 71% 80 29.92 1012.2
28 19:53 SE 10 10.00 Fair CLR 81 69.1 67% 84 29.92 1012.3
28 18:53 SE 9 10.00 Fair CLR 84 70 87.1 82.9 63% 88 29.93 1012.7
28 17:53 S 20 G 29 10.00 Fair CLR 86 68 55% 89 29.95 1013.0
28 16:53 S 18 G 26 10.00 Fair CLR 87.1 69.1 55% 91 29.97 1013.8
28 15:53 S 18 G 26 10.00 Fair CLR 87.1 68 53% 91 29.99 1014.3
28 14:53 S 14 G 22 10.00 Fair CLR 86 69.1 57% 90 30.01 1015.0
28 13:53 S 14 G 23 10.00 Fair CLR 84 66 55% 86 30.02 1015.6
28 12:53 S 12 10.00 Fair CLR 82 66 82 57.9 58% 84 30.05 1016.5
28 11:53 SE 12 G 18 10.00 Partly Cloudy SCT080 80.1 64.9 60% 82 30.08 1017.5
Date Time (cdt) Wind (mph) Vis. (mi.) Weather Sky Cond. Air Dwpt Max. Min. Relative Humidity Wind Chill (°F) Heat Index (°F) altimeter (in) sea level (mb) 1 hr 3 hr 6 hr
6 hour
Temperature (ºF) Pressure Precipitation (in)